Location: Vienna
(48.2082°N, 16.3738°E)
Time: 22:22:04
(UTC+02:00)

ISS - Pass Details

Date: 18 July 2018
Orbit: 402 x 408 km, 51.6° (Epoch: 20 July)

Event Time Altitude Azimuth Distance (km) Brightness Sun altitude
Exits shadow 23:58:10 62° 251° (WSW) 462 -3.7 -19.5°
Maximum altitude 23:58:40 88° 338° (NNW) 411 -3.9 -19.5°
Drops below altitude 10° 00:01:58 10° 68° (ENE) 1,469 -0.9 -19.6°
Sets 00:04:03 0° 68° (ENE) 2,333 0.1 -19.7°
